Weather History for KTAN - August, 2013

Change the Weather History Date:

Wednesday, August 14, 2013

  Actual Average Record
Temperature  
Mean Temperature 66 °F -  
Max Temperature 75 °F 82 °F 97 °F (2002)
Min Temperature 55 °F 59 °F 42 °F (1964)
Cooling Degree Days 1    
Growing Degree Days 16 (Base 50)    
Moisture  
Dew Point 55 °F    
Average Humidity 69    
Maximum Humidity 97    
Minimum Humidity 43    
Precipitation  
Precipitation 0.00 in - - ()
Sea Level Pressure  
Sea Level Pressure 29.76 in    
Wind  
Wind Speed 5 mph (West)    
Max Wind Speed 16 mph    
Max Gust Speed 26 mph    
Visibility 9 miles    
Events      
Averages and records for this station are not official NWS values.
T = Trace of Precipitation, MM = Missing Value Source: NWS Daily Summary

Daily Weather History Graph

Daily Weather History Graph

Search for Another Location

Airport or City:

Trip Planner

Search our weather history database for the weather conditions in past years. The results will help you decide how hot, cold, wet, or windy it might be!

Date:

Astronomy

Aug. 14, 2013 Rise Set
Actual Time 5:51 AM EDT 7:45 PM EDT
Civil Twilight 5:21 AM EDT 8:15 PM EDT
Nautical Twilight 4:44 AM EDT 8:51 PM EDT
Astronomical Twilight 4:04 AM EDT 9:31 PM EDT
Moon 1:55 PM EDT (8/14) 11:57 PM EDT (8/14)
Length of Visible Light 14h 54m
Length of Day
13h 53m
First Quarter, 52% of the Moon is Illuminated
Aug 14
First Quarter
Aug 20
Full
Aug 28
Last Quarter
Sep 5
New
Sep 12
First Quarter

Hourly Weather History & Observations

Time (EDT) Temp. Dew Point Humidity Pressure Visibility Wind Dir Wind Speed Gust Speed Precip Events Conditions
12:52 AM 61.0 °F 60.1 °F 97% 29.69 in 4.0 mi Calm Calm - N/A   Clear
1:49 AM 66.2 °F 64.4 °F 94% 29.69 in 8.0 mi SW 3.5 mph - N/A   Overcast
1:52 AM 66.0 °F 64.0 °F 93% 29.68 in 8.0 mi SSW 3.5 mph - N/A   Overcast
2:28 AM 66.0 °F 64.0 °F 93% 29.68 in 8.0 mi WSW 4.6 mph - N/A   Scattered Clouds
2:50 AM 66.2 °F 64.4 °F 94% 29.69 in 8.0 mi SW 4.6 mph - N/A   Mostly Cloudy
2:52 AM 66.0 °F 64.0 °F 93% 29.68 in 8.0 mi SW 6.9 mph - N/A   Mostly Cloudy
3:13 AM 66.0 °F 64.0 °F 93% 29.68 in 9.0 mi West 5.8 mph - N/A   Mostly Cloudy
3:52 AM 66.0 °F 64.0 °F 93% 29.67 in 7.0 mi West 4.6 mph - N/A   Clear
4:52 AM 66.0 °F 63.0 °F 90% 29.69 in 10.0 mi West 5.8 mph - N/A   Clear
5:52 AM 64.0 °F 59.0 °F 84% 29.71 in 10.0 mi WNW 5.8 mph - N/A   Clear
6:52 AM 63.0 °F 52.0 °F 67% 29.74 in 10.0 mi WNW 6.9 mph - N/A   Clear
7:52 AM 64.0 °F 52.0 °F 65% 29.75 in 10.0 mi WNW 6.9 mph - N/A   Clear
8:52 AM 66.0 °F 50.0 °F 56% 29.74 in 10.0 mi WNW 10.4 mph 17.3 mph N/A   Clear
9:52 AM 69.1 °F 51.1 °F 53% 29.74 in 10.0 mi West 5.8 mph - N/A   Clear
10:52 AM 70.0 °F 50.0 °F 49% 29.73 in 10.0 mi WNW 10.4 mph 18.4 mph N/A   Clear
11:52 AM 71.1 °F 51.1 °F 49% 29.75 in 10.0 mi WSW 11.5 mph 21.9 mph N/A   Clear
12:52 PM 73.9 °F 52.0 °F 46% 29.74 in 10.0 mi WNW 8.1 mph 21.9 mph N/A   Clear
1:52 PM 73.9 °F 51.1 °F 45% 29.75 in 10.0 mi WNW 8.1 mph 24.2 mph N/A   Clear
2:52 PM 73.9 °F 50.0 °F 43% 29.75 in 10.0 mi West 15.0 mph 23.0 mph N/A   Partly Cloudy
3:52 PM 73.9 °F 50.0 °F 43% 29.76 in 10.0 mi NW 11.5 mph 21.9 mph N/A   Partly Cloudy
4:52 PM 73.9 °F 50.0 °F 43% 29.78 in 10.0 mi WNW 12.7 mph 26.5 mph N/A   Partly Cloudy
5:52 PM 73.0 °F 50.0 °F 44% 29.79 in 10.0 mi West 16.1 mph 23.0 mph N/A   Clear
6:52 PM 72.0 °F 51.1 °F 48% 29.81 in 10.0 mi West 5.8 mph - N/A   Clear
7:52 PM 68.0 °F 52.0 °F 56% 29.85 in 10.0 mi WNW 4.6 mph - N/A   Clear
8:52 PM 59.0 °F 54.0 °F 83% 29.89 in 10.0 mi WNW 4.6 mph - N/A   Clear
9:52 PM 64.0 °F 52.0 °F 65% 29.92 in 10.0 mi WNW 5.8 mph - N/A   Clear
10:52 PM 63.0 °F 52.0 °F 67% 29.95 in 10.0 mi WNW 4.6 mph - N/A   Clear
11:52 PM 55.0 °F 52.0 °F 89% 29.97 in 10.0 mi West 3.5 mph - N/A   Clear